Weather reports worldwide

Advertisment
Stonyhurst, United Kingdom (99060): temperature & dewpoint: 10.07.2020 04:00:00 - 16.07.2020 04:00:00 (BST)Stonyhurst, United Kingdom (99060): precipitation: 10.07.2020 04:00:00 - 16.07.2020 04:00:00 (BST)
Date & Time tt [°C] td [°C] rr [mm]
16.07.2020 04:00:00 13,5 11,9 0,0
16.07.2020 03:00:00 13,6 11,7 0,0
16.07.2020 02:00:00 13,6 11,9 0,0
16.07.2020 01:00:00 13,6 12,4 0,0
16.07.2020 00:00:00 13,7 12,2 0,0
15.07.2020 23:00:00 13,6 12,3 0,0
15.07.2020 22:00:00 13,6 12,2 0,0
15.07.2020 21:00:00 13,4 12,4 0,0
15.07.2020 20:00:00 13,9 12,1 0,0
15.07.2020 19:00:00 13,9 12,1 0,0
15.07.2020 18:00:00 13,9 12,4 0,0
15.07.2020 17:00:00 13,8 12,6 0,0
15.07.2020 16:00:00 14,1 12,5 0,0
15.07.2020 15:00:00 13,5 12,5 0,2
15.07.2020 14:00:00 13,3 12,6 0,8
15.07.2020 13:00:00 13,4 12,4 0,4
15.07.2020 12:00:00 13,7 12,7 0,0
15.07.2020 11:00:00 13,8 12,6 0,4
15.07.2020 10:00:00 13,1 12,4 0,2
15.07.2020 09:00:00 12,7 12,0 0,2
15.07.2020 08:00:00 12,7 12,3 0,0
15.07.2020 07:00:00 12,5 12,2 0,4
15.07.2020 06:00:00 12,2 12,0 0,2
15.07.2020 05:00:00 12,1 11,9 0,0
15.07.2020 04:00:00 12,0 11,8 0,2
15.07.2020 03:00:00 11,9 11,7 0,2
15.07.2020 02:00:00 12,0 11,6 0,0
15.07.2020 01:00:00 12,1 11,7 0,0
15.07.2020 00:00:00 12,1 11,6 0,0
14.07.2020 23:00:00 12,1 11,4 0,2
14.07.2020 22:00:00 12,2 10,9 0,0
14.07.2020 21:00:00 12,5 10,4 0,0
14.07.2020 20:00:00 12,8 10,4 0,0
14.07.2020 19:00:00 13,3 10,0 0,0
14.07.2020 18:00:00 14,1 9,9 0,0
14.07.2020 17:00:00 13,7 10,5 0,0
14.07.2020 16:00:00 13,9 10,2 0,0
14.07.2020 15:00:00 13,9 10,0 0,0
14.07.2020 14:00:00 14,2 9,5 0,0
14.07.2020 13:00:00 12,8 10,7 0,0
14.07.2020 12:00:00 13,3 10,1 0,0
14.07.2020 11:00:00 13,2 9,9 0,0
14.07.2020 10:00:00 13,1 9,5 0,0
14.07.2020 09:00:00 12,6 9,7 0,0
14.07.2020 08:00:00 12,7 9,6 0,0
14.07.2020 07:00:00 12,0 9,0 0,0
14.07.2020 06:00:00 11,4 9,0 0,0
14.07.2020 05:00:00 11,4 9,0 0,0
14.07.2020 04:00:00 11,2 8,9 0,0
14.07.2020 03:00:00 11,7 8,6 0,0
14.07.2020 02:00:00 13,2 9,9 0,0
14.07.2020 01:00:00 13,8 12,0 0,0
14.07.2020 00:00:00 13,8 12,8 0,0
13.07.2020 23:00:00 14,1 12,7 0,0
13.07.2020 22:00:00 14,5 12,6 0,0
13.07.2020 21:00:00 15,0 12,3 0,0
13.07.2020 20:00:00 15,7 12,1 0,0
13.07.2020 19:00:00 16,2 11,9 0,0
13.07.2020 18:00:00 16,7 12,7 0,0
13.07.2020 17:00:00 16,8 12,4 0,0
13.07.2020 16:00:00 16,7 13,6 0,0
13.07.2020 15:00:00 15,9 14,0 0,2
13.07.2020 14:00:00 16,6 15,2 0,0
13.07.2020 13:00:00 15,3 15,0 0,4
13.07.2020 12:00:00 15,1 14,8 0,8
13.07.2020 11:00:00 15,0 14,7 1,0
13.07.2020 10:00:00 14,7 14,3 0,2
13.07.2020 09:00:00 14,6 13,1 0,0
13.07.2020 08:00:00 13,5 12,2 0,2
13.07.2020 07:00:00 12,8 11,1 0,0
13.07.2020 06:00:00 13,2 10,0 0,0
13.07.2020 05:00:00 13,1 8,8 0,0
13.07.2020 04:00:00 12,8 8,5 0,0
13.07.2020 03:00:00 12,3 8,9 0,0
13.07.2020 02:00:00 12,4 9,6 0,0
13.07.2020 01:00:00 12,1 9,5 0,0
13.07.2020 00:00:00 12,0 9,2 0,0
12.07.2020 23:00:00 12,1 9,0 0,0
12.07.2020 22:00:00 13,8 8,8 0,0
12.07.2020 21:00:00 15,3 8,9 0,0
12.07.2020 20:00:00 16,1 9,2 0,0
12.07.2020 19:00:00 16,8 9,4 0,0
12.07.2020 18:00:00 18,6 9,5 0,0
12.07.2020 17:00:00 19,7 9,4 0,0
12.07.2020 16:00:00 19,7 9,2 0,0
12.07.2020 15:00:00 18,2 7,1 0,0
12.07.2020 14:00:00 18,4 7,9 0,0
12.07.2020 13:00:00 18,4 9,7 0,0
12.07.2020 12:00:00 16,7 8,4 0,0
12.07.2020 11:00:00 16,4 8,4 0,0
12.07.2020 10:00:00 15,0 8,5 0,0
12.07.2020 09:00:00 13,7 10,4 0,0
12.07.2020 08:00:00 12,0 10,7 0,0
12.07.2020 07:00:00 8,4 8,1 0,0
12.07.2020 06:00:00 7,4 7,1 0,0
12.07.2020 05:00:00 7,6 7,1 0,0
12.07.2020 04:00:00 8,1 7,5 0,0
12.07.2020 03:00:00 8,6 7,6 0,0
12.07.2020 02:00:00 9,6 8,1 0,0
12.07.2020 01:00:00 9,9 8,4 0,0
12.07.2020 00:00:00 11,1 8,7 0,0
11.07.2020 23:00:00 10,7 7,9 0,0
11.07.2020 22:00:00 11,1 7,6 0,0
11.07.2020 21:00:00 13,2 8,6 0,0
11.07.2020 20:00:00 13,7 7,7 0,0
11.07.2020 19:00:00 14,2 8,5 0,0
11.07.2020 18:00:00 14,2 8,5 0,0
11.07.2020 17:00:00 13,9 7,5 0,0
11.07.2020 16:00:00 14,5 7,5 0,0
11.07.2020 15:00:00 14,4 6,3 0,0
11.07.2020 14:00:00 14,6 8,2 0,0
11.07.2020 13:00:00 14,6 8,5 0,0
11.07.2020 12:00:00 14,0 8,3 0,0
11.07.2020 11:00:00 13,4 8,8 0,0
11.07.2020 10:00:00 13,7 7,8 0,0
11.07.2020 09:00:00 13,1 9,0 0,0
11.07.2020 08:00:00 12,7 7,5 0,0
11.07.2020 07:00:00 11,9 8,3 0,0
11.07.2020 06:00:00 11,4 8,4 0,0
11.07.2020 05:00:00 10,7 7,9 0,0
11.07.2020 04:00:00 11,2 8,2 0,0
11.07.2020 03:00:00 10,9 8,1 0,0
11.07.2020 02:00:00 11,3 8,0 0,0
11.07.2020 01:00:00 11,3 8,7 0,0
11.07.2020 00:00:00 11,0 9,0 0,0
10.07.2020 23:00:00 11,7 8,5 0,0
10.07.2020 22:00:00 12,7 9,4 0,0
10.07.2020 21:00:00 13,1 8,6 0,0
10.07.2020 20:00:00 13,6 8,8 0,0
10.07.2020 19:00:00 14,8 8,6 0,0
10.07.2020 18:00:00 15,4 9,2 0,0
10.07.2020 17:00:00 15,6 8,8 0,0
10.07.2020 16:00:00 15,4 9,4 0,0
10.07.2020 15:00:00 14,6 10,0 0,2
10.07.2020 14:00:00 14,4 9,9 0,0
10.07.2020 13:00:00 13,9 9,3 0,0
10.07.2020 12:00:00 14,2 8,6 0,0
10.07.2020 11:00:00 13,5 9,3 0,0
10.07.2020 10:00:00 12,6 9,3 0,0
10.07.2020 09:00:00 12,4 9,4 0,0
10.07.2020 08:00:00 11,7 8,9 0,0
10.07.2020 07:00:00 10,5 8,4 0,0
10.07.2020 06:00:00 10,4 8,2 0,0
10.07.2020 05:00:00 9,6 7,9 0,2
10.07.2020 04:00:00 8,8 8,5 0,0

tt = temperature
td = dewpoint
rr = precipitation

Next stations